sat.trackr.live / text

‹ back to catalog

STARLINK-30166

NORAD 57602 · 2023-119A

PAYLOAD ACTIVE UNKNOWN

§ Identity

Operator
Country
US
Launch date
2023-08-11
Launch site
AFETR
Launch vehicle
Mass (kg)
RCS (m²)

Purposes: comms

External: N2YO · Heavens-Above · Gunter

§ Orbital elements

Epoch: 2026-05-24T23:04:56.191008Z

Period
94.27 min
Inclination
43.0042°
Eccentricity
0.0002201
Mean motion
15.27588987 rev/d
Perigee alt
481.5 km
Apogee alt
484.5 km
Semi-major
6,861.2 km
B*
-2.6565e-5
RAAN
10.6306°
Arg perigee
253.5464°
Mean anomaly
106.5146°
Rev number
15,469

§ Raw data

STARLINK-301661 57602U 23119A   26144.96176147 -.00000994  00000+0 -26565-4 0  99952 57602  43.0042  10.6306 0002201 253.5464 106.5146 15.27588987154693

JSON: /api/v1/satellites/57602 · /tle

For live sub-satellite position, see the globe view (requires WebGL).

§ Visibility from observer

Set your observer location to see the next 7 days of passes ≥ 10°. The values pass through the URL so the page stays shareable.

No JS? Fill the form by hand. The geolocation button needs JavaScript.